Home > Weather > Maputo > Past weeks

Flag for Mozambique Past Weather in Maputo, Mozambique — Yesterday and Last 2 Weeks

Now
63 °F

Fog.


Feels Like: 63 °F
Forecast: 58 / 84 °F
Wind: 3 mph from Northeast

Location: Maputo / Mavalane

Current Time: Aug 30, 2016 at 3:40:21 AM

Latest Report: Aug 30, 2016 at 3:00 AM


Visibility: 3 mi

Pressure: 30.18 "Hg

Humidity: 94%

Dew Point: 61 °F

Location of MaputoLocation

Past Weather in Maputo — Graph

°F

Maputo Temperature Yesterday

Maximum temperature yesterday: 82 °F (at 1:00 PM)
Minimum temperature yesterday: 55 °F (at 9:00 AM)
Average temperature yesterday: 70 °F

High & Low Weather Summary for the Past Weeks

 TemperatureHumidityPressure
High90 °F (Aug 22, 1:00 PM)100% (Aug 18, 2:20 AM)30.48 "Hg (Aug 18, 2:20 AM)
Low52 °F (Aug 24, 5:00 AM)26% (Aug 22, 1:00 PM)29.86 "Hg (Aug 21, 3:00 PM)
Average70 °F72%30.22 "Hg
* Reported Aug 15 2:00 AM — Aug 30 2:00 AM, Maputo, Weather by CustomWeather, © 2016

Note: Actual official high and low records may vary slightly from our data, if they occured in-between our weather recording intervals... More about our weather records

Advertising

Maputo Weather History for the Previous 24 Hours

Scroll right to see more
 ConditionsComfort  
Time TempWeatherWind HumidityBarometerVisibility
2:00 AM
Tue, Aug 30
64 °FFog.2 mph94%30.21 "Hg3 mi
1:00 AM64 °FFog.2 mph94%30.21 "Hg3 mi
12:00 AM64 °FFog.2 mph94%30.21 "Hg1 mi
11:00 PM
Mon, Aug 29
68 °FClear.2 mph88%30.21 "Hg10 mi
9:00 PM70 °FClear.9 mph88%30.21 "Hg10 mi
8:00 PM70 °FClear.13 mph83%30.18 "Hg10 mi
7:00 PM72 °FClear.13 mph83%30.18 "Hg10 mi
6:00 PM72 °FClear.13 mph78%30.18 "Hg10 mi
5:00 PM75 °FClear.17 mph69%30.18 "Hg10 mi
4:00 PM79 °FSunny.14 mph58%30.15 "Hg10 mi
3:00 PM81 °FSunny.14 mph54%30.15 "Hg10 mi
2:00 PM81 °FSunny.15 mph54%30.18 "Hg10 mi
1:00 PM82 °FSunny.7 mph48%30.21 "Hg10 mi
12:00 PM81 °FSunny.9 mph51%30.24 "Hg10 mi
11:00 AM77 °FSunny.9 mph51%30.27 "Hg10 mi
10:00 AM77 °FSunny.12 mph54%30.30 "Hg10 mi
9:00 AM55 °FSunny.12 mph100%30.30 "Hg10 mi
8:00 AM68 °FSunny.8 mph73%30.30 "Hg10 mi
7:00 AM61 °FSunny.7 mph94%30.30 "Hg10 mi
6:00 AM59 °FSunny.5 mph94%30.27 "Hg10 mi
5:00 AM59 °FClear.5 mph94%30.27 "Hg10 mi
4:00 AM59 °FLight fog.3 mph94%30.27 "Hg3 mi
Weather by CustomWeather, © 2016

See weather overviewHow to use our weather pages